Probability
0 0 0 0 0 0 0 0 0 0 0 0 0 0 0 0 0 0 0 0 0 0 0 0 0 0 0 0 0 0 0 0 0 0 0 0 0 0 0 0 0 0 0
0 0 0 0 0 0 0 0 0 0 0 0 0 0 0 0 0 0 0 0 0 0 0 0 0 0 0 0 0 0 0 0 0 0 0 0 0 0 0 0 0 0 0
0 0 0 0 0 0 0 0 0 0 0 0 0 0 0 0 0 0 0 0 0 0 0 0 0 0 0 0 0 0 0 0 0 0 0 0 0 0 0 0 0 0 0
0 0 0 0 0 0 0 0 0 0 0 0 0 0 0 0 0 0 0 0 0 0 0 0 0 0 0 0 0 0 0 0 0 0 0 0 0 0 0 0 0 0 0
0 0 0 0 0 0 0 0 0 0 0 0 0 0 0 0 0 0 0 0 0 0 0 0 0 0 0 0 0 0 0 0 0 0 0 0 0 0 0 0 0 0 0
0 0 0 0 0 0 0 0 0 0 0 0 0 0 0 0 0 0 0 0 0 0 0 0 0 0 0 0 0 0 0 0 0 0 0 0 0 0 0 0 0 0 0
0 0 0 0 0 0 0 0 0 0 0 0 0 0 0 0 0 0 0 0 0 0 0 0 0 0 0 0 0 0 0 0 0 0 0 0 0 0 0 0 0 0 0
0 0 0 0 0 0 0 0 0 0 0 0 0 0 0 0 0 0 0 0 0 0 0 0 0 0 0 0 0 0 0 0 0 0 0 0 0 0 0 0 0 0 0
0 0 0 0 0 0 0 0 0 0 0 0 0 0 0 0 0 0 0 0 0 0 0 0 0 0 0 0 0 0 0 0 0 0 0 0 0 0 0 0 0 0 0
0 0 0 0 0 0 0 0 0 0 0 0 0 0 0 0 0 0 0 0 0 0 0 0 0 0 0 0 0 0 0 0 0 0 0 0 0 0 0 0 0 0 0
0 0 0 0 0 0 0 0 0 0 0 0 0 0 0 0 0 0 0 0 0 0 0 0 0 0 0 0 0 0 0 0 0 0 0 0 0 0 0 0 0 0 0
0 0 0 0 0 0 0 0 0 0 0 0 0 0 0 0 0 0 0 0 0 0 0 0 0 0 0 0 0 0 0 0 0 0 0 0 0 0 0 0 0 0 0
0 0 0 0 0 0 0 0 0 0 0 0 0 0 0 0 0 0 0 0 0 0 0 0 0 0 0 0 0 0 0 0 0 0 0 0 0 0 0 0 0 0 0
0 0 0 0 0 0 0 0 0 0 0 0 0 0 0 0 0 0 0 0 0 0 0 0 0 0 0 0 0 0 0 0 0 0 0 0 0 0 0 0 0 0 0
0 0 0 0 0 0 0 0 0 0 0 0 0 0 0 0 0 0 0 0 0 0 0 0 0 0 0 0 0 0 0 0 0 0 0 0 0 0 0 0 0 0 0
0 0 0 0 0 0 0 0 0 0 0 0 0 0 0 0 0 0 0 0 0 0 0 0 0 0 0 0 0 0 0 0 0 0 0 0 0 0 0 0 0 0 0
0 0 0 0 0 0 0 0 0 0 0 0 0 0 0 0 0 0 0 0 0 0 0 0 0 0 0 0 0 0 0 0 0 0 0 0 0 0 0 0 0 0 0
0 0 0 0 0 0 0 0 0 0 0 0 0 0 0 0 0 0 0 0 0 0 0 0 0 0 0 0 0 0 0 0 0 0 0 0 0 0 0 0 0 0 0
0 0 0 0 0 0 0 0 0 0 0 0 0 0 0 0 0 0 0 0 0 0 0 0 0 0 0 0 0 0 0 0 0 0 0 0 0 0 0 0 0 0 0
0 0 0 0 0 0 0 0 0 0 0 0 0 0 0 0 0 0 0 0 0 0 0 0 0 0 0 0 0 0 0 0 0 0 0 0 0 0 0 0 0 0 0
0 0 0 0 0 0 0 0 0 0 0 0 0 0 0 0 0 0 0 0 0 0 0 0 0 0 0 0 0 0 0 0 0 0 0 0 0 0 0 0 0 0 0
0 0 0 0 0 0 0 0 0 0 0 0 0 0 0 0 0 0 0 0 0 0 0 0 0 0 0 0 0 0 0 0 0 0 0 0 0 0 0 0 0 0 0
0 0 0 0 0 0 0 0 0 0 0 0 0 0 0 0 0 0 0 0 0 0 0 0 0 0 0 0 0 0 0 0 0 0 0 0 0 0 0 0 0 0 0
0 0 0 0 0 0 0 0 0 0 0 0 0 0 0 0 0 0 0 0 0 0 0 0 0 0 0 0 0 0 0 0 0 0 0 0 0 0 0 0 0 0 0
0 0 0 0 0 0 0 0 0 0 0 0 0 0 0 0 0 0 0 0 0 0 0 0 0 0 0 0 0 0 0 0 0 0 0 0 0 0 0 0 0 0 0
0 0 0 0 0 0 0 0 0 0 0 0 0 0 0 0 0 0 0 0 0 0 0 0 0 0 0 0 0 0 0 0 0 0 0 0 0 0 0 0 0 0 0
Height
5715 5710 5706 5702 5697 5694 5691 5688 5687 5686 5686 5686 5687 5689 5691 5693 5696 5699 5702 5706 5709 5713 5717 5721 5725 5728 5732 5736 5740 5744 5749 5753 5756 5758 5759 5761 5763 5765 5767 5768 5769 5770 5771
5697 5692 5687 5683 5678 5674 5671 5668 5666 5665 5664 5664 5665 5667 5669 5672 5675 5679 5683 5687 5691 5695 5700 5704 5709 5714 5718 5722 5727 5732 5736 5741 5745 5749 5751 5753 5755 5757 5759 5760 5762 5763 5764
5677 5672 5667 5662 5657 5654 5650 5648 5645 5644 5643 5643 5643 5645 5647 5650 5653 5657 5661 5666 5671 5676 5681 5687 5692 5698 5703 5708 5713 5718 5724 5729 5734 5738 5741 5744 5746 5748 5751 5752 5754 5755 5757
5657 5651 5646 5641 5637 5633 5630 5627 5625 5624 5623 5622 5623 5624 5625 5628 5631 5635 5639 5644 5650 5656 5662 5668 5674 5681 5687 5693 5699 5705 5710 5716 5722 5727 5731 5734 5737 5740 5742 5744 5746 5748 5750
5639 5632 5626 5621 5616 5613 5610 5608 5606 5605 5604 5604 5604 5605 5606 5608 5611 5614 5618 5623 5629 5635 5642 5648 5655 5663 5670 5677 5684 5691 5697 5703 5709 5715 5720 5724 5728 5731 5734 5736 5739 5740 5742
5622 5615 5608 5602 5598 5594 5591 5589 5587 5587 5587 5587 5587 5588 5590 5591 5593 5596 5599 5604 5609 5615 5622 5629 5636 5644 5652 5660 5668 5676 5683 5690 5697 5704 5710 5715 5719 5722 5725 5728 5731 5733 5735
5606 5598 5591 5585 5580 5576 5573 5571 5570 5570 5570 5570 5571 5573 5575 5577 5579 5581 5584 5588 5592 5597 5603 5610 5618 5626 5634 5643 5652 5661 5669 5677 5685 5692 5699 5704 5709 5713 5716 5720 5723 5725 5728
5589 5581 5574 5568 5563 5559 5556 5554 5553 5553 5553 5555 5556 5558 5560 5563 5565 5568 5570 5574 5578 5582 5587 5593 5600 5608 5617 5626 5636 5646 5655 5664 5672 5680 5688 5694 5699 5703 5708 5711 5715 5718 5721
5572 5564 5557 5551 5546 5543 5540 5538 5537 5537 5538 5539 5541 5544 5546 5549 5552 5555 5558 5561 5565 5569 5573 5578 5584 5592 5601 5610 5621 5631 5641 5650 5659 5668 5676 5683 5689 5694 5699 5703 5707 5711 5714
5558 5549 5541 5535 5531 5527 5525 5523 5521 5521 5523 5524 5527 5530 5533 5537 5540 5543 5546 5550 5554 5557 5561 5566 5571 5578 5585 5594 5605 5616 5627 5637 5647 5656 5664 5672 5679 5685 5690 5695 5700 5704 5707
5544 5535 5528 5522 5517 5513 5510 5508 5507 5507 5508 5510 5513 5517 5520 5524 5528 5532 5535 5539 5543 5546 5550 5554 5559 5565 5572 5581 5592 5603 5614 5624 5634 5644 5653 5662 5669 5675 5681 5687 5692 5696 5700
5533 5525 5517 5511 5506 5501 5498 5495 5494 5495 5496 5498 5501 5505 5509 5513 5517 5522 5526 5529 5533 5537 5541 5545 5549 5555 5562 5570 5580 5590 5600 5611 5622 5633 5644 5652 5660 5667 5674 5679 5684 5689 5693
5525 5516 5509 5502 5497 5492 5488 5486 5485 5485 5486 5489 5492 5495 5499 5504 5508 5513 5517 5521 5525 5529 5532 5536 5540 5546 5552 5560 5570 5579 5589 5600 5612 5624 5635 5644 5652 5659 5665 5671 5676 5681 5685
5517 5509 5501 5495 5490 5485 5481 5479 5478 5478 5479 5481 5483 5487 5491 5496 5501 5505 5509 5513 5517 5521 5524 5528 5532 5537 5544 5552 5560 5570 5580 5591 5603 5615 5626 5635 5643 5651 5658 5664 5670 5675 5679
5511 5503 5496 5489 5484 5480 5476 5474 5472 5472 5472 5474 5477 5481 5485 5489 5494 5498 5502 5506 5510 5514 5518 5521 5525 5530 5536 5544 5553 5562 5572 5583 5596 5607 5618 5627 5636 5644 5651 5657 5663 5668 5673
5508 5499 5491 5485 5480 5476 5472 5470 5468 5467 5468 5470 5473 5476 5480 5485 5489 5493 5497 5501 5504 5508 5512 5516 5520 5524 5530 5538 5547 5557 5567 5578 5590 5601 5611 5621 5630 5637 5645 5651 5656 5662 5667
5506 5497 5489 5483 5478 5474 5470 5468 5466 5465 5465 5467 5470 5473 5477 5481 5485 5489 5492 5496 5499 5503 5507 5511 5515 5520 5526 5533 5542 5553 5563 5574 5585 5595 5606 5615 5624 5632 5639 5645 5651 5656 5661
5507 5497 5489 5482 5477 5473 5470 5467 5465 5465 5465 5466 5468 5471 5475 5479 5482 5486 5489 5493 5496 5499 5503 5507 5511 5516 5522 5530 5540 5550 5560 5570 5581 5591 5601 5610 5619 5627 5634 5640 5646 5651 5656
5508 5499 5491 5484 5479 5475 5471 5469 5467 5466 5465 5466 5468 5471 5474 5477 5480 5484 5487 5490 5493 5496 5500 5504 5509 5514 5520 5529 5539 5549 5559 5568 5578 5588 5598 5607 5615 5622 5629 5635 5641 5646 5651
5510 5501 5494 5487 5482 5477 5474 5471 5469 5467 5467 5467 5469 5471 5474 5477 5480 5483 5485 5489 5492 5495 5499 5503 5508 5514 5521 5529 5539 5549 5558 5568 5577 5586 5595 5604 5612 5619 5625 5631 5637 5642 5647
5514 5505 5497 5491 5485 5481 5477 5474 5472 5471 5470 5470 5472 5474 5476 5478 5481 5483 5486 5489 5493 5496 5500 5505 5510 5517 5524 5532 5541 5550 5559 5568 5577 5586 5594 5602 5610 5616 5622 5628 5633 5639 5644
5520 5511 5503 5496 5490 5486 5482 5479 5477 5475 5475 5475 5476 5478 5480 5482 5484 5486 5489 5492 5496 5500 5504 5509 5515 5521 5529 5536 5545 5553 5562 5570 5578 5586 5594 5601 5608 5614 5620 5626 5631 5636 5641
5526 5518 5510 5503 5497 5493 5488 5485 5483 5482 5481 5481 5482 5483 5485 5487 5489 5491 5495 5498 5502 5506 5511 5516 5521 5527 5534 5541 5549 5557 5565 5572 5580 5588 5595 5602 5608 5614 5619 5624 5630 5634 5639
5534 5526 5518 5511 5505 5500 5496 5493 5491 5489 5488 5488 5489 5490 5491 5493 5496 5499 5502 5505 5509 5513 5518 5522 5528 5534 5540 5547 5554 5561 5569 5576 5583 5590 5596 5602 5608 5614 5619 5624 5628 5632 5636
5541 5534 5527 5520 5514 5510 5506 5502 5500 5498 5497 5497 5497 5498 5499 5501 5504 5507 5510 5514 5517 5521 5525 5530 5536 5541 5547 5554 5561 5567 5574 5580 5587 5593 5598 5604 5609 5614 5619 5623 5627 5631 5634
5549 5543 5536 5530 5524 5520 5516 5513 5510 5508 5507 5507 5507 5507 5509 5511 5513 5516 5519 5522 5525 5529 5534 5539 5544 5549 5555 5561 5567 5573 5579 5585 5590 5596 5601 5605 5610 5614 5618 5622 5625 5628 5631
Wind_Speed
53 53 54 54 55 55 56 56 57 57 58 58 59 59 58 58 58 57 56 55 54 53 52 50 49 47 45 44 42 40 38 36 34 32 32 30 29 27 25 24 24 24 23
55 56 56 56 56 56 56 56 56 56 57 58 59 59 60 60 61 61 60 59 58 57 55 54 52 51 49 47 45 43 41 39 36 34 33 32 30 28 27 25 25 24 24
59 59 58 57 56 55 54 53 53 52 53 54 56 57 59 60 61 61 62 62 61 61 59 57 55 53 52 50 47 45 43 41 38 36 34 32 31 29 28 26 25 24 24
60 59 57 56 55 54 52 51 49 48 47 48 49 50 52 55 58 60 61 62 62 62 62 60 58 56 54 52 49 47 45 43 40 38 35 33 31 30 28 27 26 25 24
59 58 58 56 54 53 51 49 47 46 44 44 44 44 46 48 51 54 57 59 61 61 61 61 61 59 57 55 52 50 47 44 42 40 36 34 32 31 29 27 27 26 25
59 58 57 55 53 51 49 47 46 45 44 42 41 40 40 40 42 45 48 51 55 57 59 59 59 59 59 57 55 52 49 47 44 41 38 35 33 31 30 28 27 26 26
58 57 55 53 52 50 47 46 45 44 43 41 39 38 37 37 37 39 41 44 47 50 53 56 57 58 58 58 56 54 51 48 45 43 40 36 35 33 31 29 28 27 26
56 55 53 52 50 47 46 44 42 41 40 39 38 37 36 35 35 35 36 38 40 43 47 50 53 55 56 57 57 55 53 50 47 44 41 38 36 34 31 30 28 27 26
54 53 50 47 45 43 42 42 40 39 38 38 37 36 36 34 34 34 34 34 34 37 41 44 47 50 53 55 56 55 54 52 49 45 42 40 37 34 32 30 29 27 26
51 49 46 43 42 40 40 39 37 37 36 36 36 35 35 34 33 33 32 32 32 33 35 38 41 44 49 52 53 53 53 52 50 46 44 41 38 36 33 31 29 28 27
48 44 41 39 38 37 36 35 34 34 34 33 33 32 33 32 32 31 31 30 29 29 30 33 36 39 44 48 50 50 51 51 50 48 45 42 39 37 34 32 30 28 27
45 41 38 35 34 32 31 30 29 29 29 30 30 30 30 31 30 29 28 28 27 27 28 29 31 35 39 44 47 48 49 51 50 48 45 42 39 37 35 33 31 29 28
42 38 35 32 31 28 26 25 24 24 25 25 26 27 28 28 28 27 27 27 26 27 27 28 30 33 36 39 42 44 46 48 49 48 45 41 39 37 35 33 31 30 29
40 37 33 30 28 25 23 21 20 20 21 22 22 24 25 26 26 25 25 26 26 26 25 25 28 31 34 37 40 42 44 47 48 47 44 42 39 37 35 33 31 30 29
39 35 31 28 26 23 20 18 17 16 17 18 19 21 22 23 23 23 24 24 24 24 24 24 25 28 33 36 38 40 41 45 47 45 43 41 39 37 35 33 31 30 28
38 34 30 26 23 20 18 16 14 12 12 13 15 16 18 19 19 19 20 21 22 23 23 22 23 26 32 36 38 38 40 43 44 44 41 40 39 37 35 33 32 31 29
37 34 30 25 21 18 15 13 10 9 8 9 11 13 15 16 16 16 17 19 19 20 21 21 21 25 30 35 38 38 39 40 42 42 41 40 38 36 34 33 31 30 29
37 34 30 25 20 16 14 12 9 5 4 5 8 11 13 14 14 15 15 16 17 18 19 20 20 24 30 34 38 38 37 39 41 41 40 38 37 35 33 32 31 29 28
37 34 30 26 21 17 14 11 9 6 2 2 6 8 11 12 12 12 13 13 14 16 17 18 21 24 30 34 36 36 36 37 39 39 38 36 35 34 33 31 30 29 27
38 34 30 26 22 18 15 12 10 7 4 2 4 7 8 10 10 10 11 12 12 14 15 17 21 24 29 33 34 34 36 36 37 37 36 35 34 33 32 31 30 28 27
39 34 31 27 23 19 16 14 12 9 7 6 7 7 8 8 8 9 10 12 13 14 15 17 20 25 28 31 32 33 34 35 35 35 34 33 32 31 30 29 28 27 26
38 35 32 28 24 21 19 16 14 12 11 10 10 10 10 10 10 12 13 15 16 16 16 18 22 24 29 30 31 32 33 32 33 33 33 31 30 29 28 27 26 26 25
38 36 33 30 26 23 21 18 16 15 13 13 12 12 12 13 14 15 16 18 18 18 19 21 23 25 29 31 32 32 32 31 32 32 31 29 28 26 25 25 24 24 23
36 36 34 31 28 26 24 21 18 17 16 15 16 16 17 18 18 18 19 20 20 21 22 24 25 26 27 30 31 32 31 30 30 30 28 26 25 24 23 22 22 21 21
34 34 33 31 29 27 25 24 22 21 20 19 20 21 21 21 21 21 22 22 22 22 24 26 26 27 27 29 30 30 28 27 27 26 25 23 23 22 21 20 20 19 19
31 32 32 31 29 28 26 25 25 24 23 22 22 23 24 24 24 24 24 23 23 25 26 27 27 27 27 28 27 26 24 24 23 22 21 20 19 19 18 18 18 18 18
Wind_Direction
294 292 290 289 287 284 282 279 276 273 270 267 264 262 259 257 255 253 252 251 250 250 249 248 247 246 247 246 247 247 246 245 244 246 251 255 257 258 260 262 263 264 262
298 296 293 291 289 286 283 280 278 275 271 268 264 261 259 257 254 252 251 250 249 248 247 247 245 245 245 245 245 245 245 244 243 243 247 251 254 256 258 259 260 261 262
301 299 296 294 291 288 286 283 280 276 273 269 266 262 259 256 254 252 250 248 248 247 246 245 244 243 243 243 242 243 243 243 242 241 242 246 250 253 255 257 257 258 259
303 301 299 296 293 290 287 284 281 279 276 272 268 265 261 258 255 252 249 248 247 246 245 244 243 242 240 240 240 240 241 241 240 239 240 243 247 250 251 253 254 254 256
304 302 300 297 295 292 288 285 281 278 276 274 271 267 264 260 257 253 250 248 246 244 243 242 241 240 239 238 238 238 238 239 238 237 238 240 243 246 248 249 251 251 252
305 303 301 298 295 292 289 284 280 277 275 273 271 268 264 261 257 254 251 248 246 244 242 241 240 239 238 236 236 235 236 236 236 235 235 237 240 242 244 246 248 248 248
305 303 300 297 294 291 287 284 280 276 273 270 268 265 262 260 258 255 253 250 247 244 242 240 239 237 236 235 234 233 233 233 233 233 232 234 236 238 240 242 244 244 245
307 304 301 297 293 289 286 283 279 274 271 267 264 261 259 257 256 255 254 252 249 245 242 239 238 236 234 233 232 231 230 229 229 229 229 230 232 235 236 238 240 240 242
311 307 303 299 294 290 287 283 278 273 269 265 262 259 257 254 253 253 252 251 249 246 243 239 236 235 233 231 229 228 227 226 225 226 226 227 229 231 234 235 236 237 239
315 311 306 302 297 293 289 283 277 272 267 263 260 257 254 252 251 251 250 249 247 245 243 240 236 233 230 228 226 225 225 224 223 223 223 225 226 228 230 231 232 233 236
319 315 310 306 301 296 291 284 277 271 265 261 256 253 251 249 248 249 248 246 245 244 242 241 237 232 228 224 222 222 222 221 220 220 221 223 223 225 226 228 229 231 234
323 319 315 311 307 302 295 287 279 271 264 259 254 250 248 246 245 244 244 242 241 241 241 240 236 230 225 221 218 218 218 218 217 216 218 220 220 221 223 225 227 228 231
327 324 320 316 313 308 300 292 282 272 264 258 252 247 244 242 241 242 241 239 240 240 240 239 234 227 222 216 213 213 214 214 213 213 215 216 216 218 219 221 223 225 227
331 329 325 322 319 314 306 296 285 274 264 257 250 245 241 238 238 239 239 238 238 238 238 235 230 224 217 212 210 209 209 209 209 209 210 212 213 214 217 219 221 222 224
338 335 331 328 324 319 311 302 293 279 264 256 248 240 235 233 234 236 236 234 234 234 233 232 228 221 213 206 203 203 203 202 202 204 206 208 210 211 214 215 217 219 223
346 343 339 336 333 329 323 312 300 284 267 252 241 234 229 227 229 231 231 232 232 231 229 227 222 215 207 199 197 197 196 197 199 200 201 204 206 208 212 214 216 218 220
353 352 350 347 344 342 338 331 317 295 272 247 230 223 220 220 223 227 228 228 228 227 224 219 215 209 201 197 195 192 192 193 194 196 198 201 204 206 208 211 212 214 217
358 358 358 357 355 353 352 351 347 329 283 234 217 213 212 214 219 222 222 223 223 222 216 211 208 202 195 190 189 187 189 190 190 192 196 199 201 204 206 208 210 212 215
2 3 5 5 5 5 5 6 7 7 352 214 201 202 205 208 212 214 215 215 213 211 207 204 198 195 191 186 186 185 185 185 188 189 192 195 199 202 205 207 208 209 212
7 8 9 10 11 11 14 17 21 28 43 119 166 177 184 191 197 198 197 197 197 194 191 189 187 183 182 182 181 182 182 182 185 187 190 193 196 199 202 204 205 207 209
11 13 15 16 19 22 26 31 37 47 66 98 125 139 151 160 170 174 173 173 173 172 172 171 172 173 173 174 176 178 178 180 182 185 188 190 193 196 198 200 202 205 208
16 19 21 24 28 31 34 39 47 60 75 92 108 117 123 126 133 138 145 149 149 150 154 156 159 167 169 171 172 173 176 178 180 183 185 187 191 194 197 199 201 204 206
21 23 26 30 33 36 39 47 57 67 76 86 97 106 113 117 123 129 134 136 139 142 144 146 149 155 160 164 165 167 170 172 175 178 181 184 187 189 193 196 199 202 205
23 26 29 34 38 42 46 54 62 68 76 85 95 103 109 113 118 123 125 127 128 130 135 139 142 145 151 156 158 160 162 166 170 172 176 179 183 186 189 193 197 202 208
25 28 31 36 42 47 52 58 66 74 81 88 96 102 107 111 114 118 123 126 126 127 131 134 137 141 146 150 154 156 159 164 169 173 176 180 183 186 189 195 201 208 215
27 31 34 38 45 50 55 61 68 75 81 87 94 101 105 109 113 116 118 121 124 127 129 132 134 137 141 145 150 154 157 162 168 173 177 180 184 188 194 201 209 217 224